FALCON 9 R/B, 62853

Orbit data source: Space-Track

FALCON 9 R/B, 62853 is space debris in HEO originally from a launch on Thu, 30 Jan 2025 UTC launched from the Air Force Eastern Test Range (AFETR). Debris objects in space refer to the collection of defunct objects orbiting the Earth. Examples of debris include non-operational satellites, rocket bodies, and fragments generated from explosions, collisions, or faulty payload assembly.

Loading next visibility...
FALCON 9 R/B details
Identifier
62853, 2025-021B
Orbit
HEO
Last TLE update1 week ago
Origin
Flag of USSpaceX (US)
ManufacturerSpaceX
MissionSpacecraft
Bus & MotorF9ST2, Unknown motor
Mass~4,000 kg wet, ~4,000 kg dry
Launch date (UTC)
2025-01-30 (3 weeks ago)
Launch vehicleUnknown
Launch site
Air Force Eastern Test Range (AFETR)
Object type
Payload
Rocket body
Debris
Shape & HBRUnknown
Radar Cross SectionRCS unknown

Expand to show TLE details & history

TLE from 1 week ago
0 FALCON 9 R/B
1 62853U 25021B   25039.72070872  .00003954  00000-0  57272-2 0  9992
2 62853  26.8420 343.3394 8333819 179.0644 186.2251  1.09209582   116
Epoch: 2025-02-08T17:17Z
Definitive object data (Epoch: 2025-02-08T17:17:49.233Z)
Latitude0.00015°
Longitude-55.18238°
Altitude66,620.408 km
Speed0.956 km/s
True Right ascension22h 53m 20s
True Declination0° 00' 01"
Sunlit
Object was in daylight at TLE epoch
Visualization TLE readout
Latitude-19.54333°
Longitude-100.86926°
Altitude20,408.514 km
Speed4.444 km/s
Apparent Right ascension20h 32m 53s
Apparent Declination-29° 16' 30"
Sunlit
Object is in daylight
Visualization observer readout
Local Sidereal Time15:48:55
Azimuth124.053° SE
Elevation-5.5°
Doppler factor1
Orbital elements
Apogee altitude66,656.821 km
Perigee altitude259.294 km
Semi-major axis39,836.195 km
Eccentricity0.8333819
Inclination26.842°
RAAN343.3394°
Arg. of periapsis179.0644°
True anomaly181.02414°
Mean anomaly186.2251°
Eccentric anomaly183.39632°
Mean motion0.27298 °/min
BSTAR0.0057272
Orbital period1318.79 mins
Loading maneuver chart data...
Loading historical data...
Loading historical data...
Loading historical data...
Loading historical data...
Loading historical data...
Loading historical data...
Loading historical data...
Other satellites on launch #21 in the year 2025 (2025-01-30 UTC)

FALCON 9 R/B Visibility forecast

Observer location: undefined°, undefined

Span
Click to sort rows by Start time (UTC) header in descending order
Start Az.
Max El. time (UTC)
Max El. Az.
Max El.
End time (UTC)
End Az.
637 mins2025-02-16 14:47:18.138Z124.24° SE2025-02-16 20:02:18.138Z188.496° SSW34.437°2025-02-17 01:24:18.138Z262.216° W
|